Flag for U.S.A. Weather past 2 weeks in Shreveport, Louisiana, U.S.A.

Now
67 °F

Passing clouds.


Feels Like: 67 °F
Forecast: 63 / 77 °F
Wind: No wind

Location: Shreveport Regional Airport

Current Time: Mar 31, 2015 at 11:13:40 PM

Latest Report: Mar 31, 2015 at 9:56 PM


Visibility: 10 mi

Pressure: 29.95 "Hg

Humidity: 76%

Dew point: 59 °F

Location of ShreveportLocation

Historic Weather in Shreveport — Graph

°F

Shreveport temperature yesterday

Maximum temperature yesterday: 74 °F (at 2:56 PM)
Minimum temperature yesterday: 60 °F (at 11:56 PM)
Average temperature yesterday: 68 °F

Past Weeks' High & Low Weather Summary

 TemperatureHumidityPressure
High85 °F (Mar 17, 2:56 PM)100% (Mar 22, 9:56 AM)30.20 "Hg (Mar 22, 9:56 AM)
Low41 °F (Mar 27, 3:56 AM)31% (Mar 27, 3:56 PM)29.82 "Hg (Mar 26, 2:56 AM)
Average63 °F76%30.04 "Hg
* Reported Mar 16 8:56 PM — Mar 31 8:56 PM, Shreveport, Weather by CustomWeather, © 2015

Note: Actual official high and low records may vary slightly from our data, if they occured in-between our weather recording intervals... More about our weather records

Advertising

Shreveport weather history for previous 24 hours

 ConditionsComfort  
Time TempWeatherWind HumidityBarometerVisibility
8:56 PM
Tue, Mar 31
67 °FPassing clouds.3 mph76%29.94 "Hg10 mi
7:56 PM76 °FScattered clouds.5 mph54%29.92 "Hg10 mi
6:56 PM79 °FPassing clouds.8 mph48%29.90 "Hg10 mi
5:56 PM81 °FScattered clouds.13 mph51%29.91 "Hg10 mi
4:56 PM79 °FScattered clouds.3 mph56%29.92 "Hg10 mi
3:56 PM79 °FPassing clouds.6 mph56%29.94 "Hg10 mi
2:56 PM79 °FBroken clouds.13 mph58%29.98 "Hg10 mi
1:56 PM74 °FOvercast.12 mph67%30.01 "Hg10 mi
12:56 PM72 °FOvercast.14 mph71%30.03 "Hg10 mi
11:56 AM72 °FOvercast.12 mph71%30.05 "Hg10 mi
11:03 AM71 °FOvercast.10 mph73%30.07 "Hg10 mi
10:56 AM71 °FPartly sunny.10 mph73%30.06 "Hg10 mi
9:56 AM69 °FOvercast.10 mph79%30.05 "Hg10 mi
9:03 AM66 °FOvercast.12 mph87%30.05 "Hg10 mi
8:56 AM66 °FPartly sunny.13 mph87%30.04 "Hg10 mi
7:56 AM64 °FPassing clouds.8 mph90%30.04 "Hg9 mi
6:56 AM63 °FMostly cloudy.9 mph93%30.04 "Hg10 mi
5:56 AM64 °FHigh level clouds.9 mph90%30.03 "Hg10 mi
4:56 AM64 °FHigh level clouds.6 mph90%30.01 "Hg10 mi
3:56 AM65 °FHigh level clouds.8 mph87%30.01 "Hg10 mi
2:56 AM65 °FHigh level clouds.6 mph87%30.03 "Hg10 mi
1:56 AM65 °FHigh level clouds.8 mph87%30.04 "Hg10 mi
12:56 AM63 °FHigh level clouds.7 mph90%30.04 "Hg10 mi
11:56 PM
Mon, Mar 30
60 °FFog.3 mph93%30.06 "Hg7 mi
Weather by CustomWeather, © 2015

See weather overviewHow to use our weather pages